Wind_Speed
8 9 9 9 8 7 7 8 8 9 10 11 11 12 12 12 12 11 11 11 11 10 10 9 9 8 8 8 8 8 8 8 8 7 7 7 7 7 7 7 7 8 7
6 7 8 8 7 7 6 7 7 8 9 10 11 11 11 11 11 10 10 9 9 9 9 9 8 8 8 7 8 8 8 8 8 7 7 7 7 7 7 7 7 7 7
5 6 6 7 6 5 5 6 7 8 8 9 9 10 10 9 9 9 9 9 8 8 8 8 7 7 7 7 8 8 8 8 8 7 7 7 7 7 7 7 6 7 7
5 5 6 6 5 4 4 5 6 6 7 8 8 8 8 9 9 9 9 8 8 8 7 7 7 7 7 7 7 7 7 8 7 7 6 6 6 7 7 7 6 6 7
4 5 5 5 5 4 4 4 5 5 6 6 6 7 7 8 8 9 8 8 8 7 7 7 7 7 6 6 6 7 7 7 6 6 7 6 6 7 7 7 7 7 7
4 5 5 5 5 5 4 4 5 5 5 5 6 6 7 7 7 8 7 7 7 7 6 5 5 6 6 6 6 6 6 6 6 6 6 6 6 7 7 7 7 7 6
4 5 5 4 4 4 4 4 4 4 5 5 5 6 6 7 7 7 7 7 6 6 6 5 5 5 6 6 6 6 6 6 5 5 6 6 6 7 7 6 6 6 6
3 4 4 4 4 4 4 4 4 5 5 5 5 5 5 6 6 6 6 6 5 5 5 5 5 5 5 5 5 5 5 5 5 5 5 6 6 6 6 6 6 6 6
3 3 4 4 4 4 5 5 5 5 5 5 5 5 5 5 5 5 5 5 5 5 5 5 5 5 5 5 4 4 4 5 5 5 5 5 6 6 6 6 6 6 5
1 2 4 4 4 4 5 5 5 5 5 5 5 5 5 5 4 4 4 4 4 4 4 3 3 3 3 4 3 3 3 4 4 4 4 5 5 5 5 5 5 5 5
2 2 4 4 4 4 5 6 6 6 6 6 5 5 5 5 4 4 3 3 3 3 3 3 2 2 2 2 2 3 3 3 3 4 4 4 4 3 4 4 4 4 4
2 3 4 5 5 5 5 6 6 6 6 6 6 6 6 5 4 4 3 3 3 3 3 2 2 2 1 1 2 2 2 2 3 3 3 3 3 3 3 3 3 4 4
3 3 4 5 5 6 6 6 6 6 6 6 7 7 6 5 5 5 4 4 3 3 3 3 2 2 1 1 1 1 1 1 2 2 2 3 2 2 3 3 2 3 3
5 4 4 5 5 6 7 7 6 6 6 6 6 7 6 6 6 5 5 4 4 4 3 3 3 2 2 2 1 1 1 0 0 1 2 2 2 2 2 2 2 2 2
6 5 5 5 6 7 7 8 7 7 7 7 7 7 6 6 6 5 5 5 5 5 4 4 3 3 3 3 3 2 1 1 1 1 1 2 2 2 2 2 2 2 2
6 6 6 6 6 7 8 8 8 8 7 7 7 7 7 7 7 7 6 6 6 6 5 5 4 4 3 3 3 3 2 2 2 1 1 1 1 2 2 3 3 2 2
7 7 7 8 8 8 9 9 9 8 8 8 8 8 8 8 8 8 8 7 6 6 6 6 6 5 5 4 4 4 3 3 3 2 1 1 1 1 2 2 3 3 3
8 8 9 9 9 9 9 9 9 9 9 9 9 9 9 10 9 9 9 8 7 7 7 7 7 6 5 5 4 4 4 3 3 2 2 1 1 1 2 2 3 3 3
9 10 10 10 10 10 10 10 10 10 9 10 10 10 10 10 10 10 10 10 9 8 7 8 8 7 7 6 5 5 4 4 3 3 2 2 2 2 2 3 3 3 3
11 11 10 9 9 10 10 11 11 11 11 11 11 11 11 11 11 11 11 11 11 9 9 8 8 8 8 7 6 5 5 4 4 3 3 3 3 3 3 3 3 3 3
11 11 10 10 10 10 10 11 11 12 12 11 11 11 12 12 12 12 12 11 11 10 10 9 9 9 9 8 7 6 6 5 4 4 4 4 4 4 3 3 3 3 4
12 12 11 10 10 11 11 11 11 11 12 12 12 12 12 12 13 13 13 12 12 11 11 10 10 10 9 9 9 8 7 6 5 4 4 5 5 4 4 3 4 4 4
12 11 11 10 11 11 11 11 12 12 12 13 13 13 14 14 15 14 14 14 14 13 13 12 11 12 11 10 10 10 9 8 7 5 5 5 5 4 4 4 3 3 4
11 11 11 11 11 11 10 11 11 12 13 14 15 15 15 15 15 15 15 15 15 14 13 13 13 13 13 12 12 12 11 10 9 8 7 7 6 6 5 5 4 4 4
12 12 12 13 13 12 12 12 13 13 14 14 14 15 15 16 16 16 16 16 16 15 15 15 15 15 14 14 13 13 12 11 10 10 9 9 8 8 7 6 6 6 5
14 14 14 14 14 14 13 14 14 14 15 15 15 15 15 16 16 16 16 17 17 16 16 16 16 16 15 15 15 14 13 13 12 12 11 11 11 10 9 8 8 8 8
Wind_Direction
106 107 107 107 108 113 120 125 128 131 130 127 124 126 124 120 119 118 115 115 113 113 112 109 107 106 99 91 86 82 79 77 77 76 69 64 64 66 67 74 74 75 79
115 118 118 115 115 117 121 127 135 138 138 135 131 131 129 124 119 115 116 117 114 111 108 106 104 101 93 88 84 82 80 78 77 74 70 66 64 63 66 71 72 75 76
126 130 131 127 124 125 129 132 141 147 144 141 135 134 130 125 122 118 114 111 110 108 105 102 101 97 90 87 84 82 80 77 78 74 70 67 64 61 62 66 69 75 79
134 138 143 139 137 138 147 146 149 152 154 151 144 135 131 129 126 120 117 113 112 107 101 99 95 90 85 81 82 81 80 77 77 74 71 69 65 62 63 64 67 74 77
139 140 142 144 145 152 163 168 162 162 160 156 150 144 141 135 130 122 119 116 114 108 100 96 94 91 84 82 82 80 80 78 75 73 71 68 65 65 64 64 66 72 72
149 150 149 147 150 159 170 176 172 168 167 162 158 154 148 139 132 125 123 121 117 111 104 101 97 93 86 84 84 83 80 78 74 73 71 67 64 62 62 60 62 64 68
154 159 159 157 162 172 181 184 182 180 178 174 166 161 156 147 138 133 131 129 123 117 113 109 102 98 90 85 85 83 79 75 73 72 71 67 63 61 62 58 55 58 69
152 157 165 172 175 184 191 193 194 194 190 184 178 173 169 156 144 142 138 135 130 126 123 117 107 101 91 85 81 84 81 75 75 70 71 63 59 59 58 54 54 52 63
165 166 170 184 188 196 200 201 204 205 202 196 189 184 178 170 160 154 149 146 141 134 131 125 114 105 96 89 84 82 77 75 70 67 65 60 61 59 57 56 52 52 57
202 195 184 193 197 203 209 213 214 213 212 209 202 198 193 186 180 168 160 157 151 144 139 130 123 115 104 96 90 84 74 70 66 66 65 62 63 59 53 51 47 51 51
251 225 212 212 212 214 217 220 224 224 221 219 215 212 208 201 193 176 174 172 168 161 154 144 132 127 111 97 89 81 71 67 67 72 62 59 62 58 47 42 40 44 44
275 243 227 225 225 227 227 228 232 232 229 227 223 218 218 213 206 194 196 194 189 185 179 173 160 150 129 104 95 83 80 79 75 62 54 54 55 52 41 33 32 31 33
286 267 253 238 233 235 238 236 240 238 237 234 228 226 226 225 225 218 213 210 206 204 198 193 187 184 174 166 139 107 105 103 78 54 52 47 45 41 24 21 26 20 21
291 278 267 252 242 236 237 237 247 247 245 247 240 237 240 236 237 236 231 228 223 219 218 217 214 208 206 215 219 203 197 235 355 23 37 27 22 20 18 15 16 11 5
290 284 269 267 258 243 238 241 248 246 247 250 248 247 243 243 242 242 243 245 237 232 234 232 233 236 233 237 238 230 247 268 279 295 25 21 14 15 17 18 13 1 354
289 286 278 278 268 251 244 245 248 247 248 249 252 253 250 245 245 245 249 253 246 240 241 240 244 255 253 245 245 243 253 271 271 302 340 1 6 3 15 21 12 1 352
292 286 283 281 276 261 248 247 252 250 250 251 253 259 255 250 250 252 257 257 254 248 247 249 250 255 262 263 263 260 261 264 275 278 291 317 350 360 9 9 9 6 357
295 292 287 280 276 268 257 251 255 256 255 253 255 259 259 253 254 256 260 258 258 254 250 251 253 254 261 263 260 259 258 260 264 255 245 273 319 341 354 353 351 349 348
298 294 289 278 272 271 263 256 257 256 255 255 256 259 262 258 257 256 259 261 262 259 251 248 252 256 259 260 256 256 258 261 265 261 245 262 281 301 316 321 332 339 343
299 298 292 281 277 267 264 259 259 259 258 259 260 261 260 261 264 261 260 263 264 258 249 246 252 255 255 260 259 253 250 256 271 268 260 265 277 295 309 317 325 326 332
296 297 295 284 277 269 264 261 259 260 260 261 260 261 261 263 262 263 262 262 262 254 250 249 251 255 253 256 256 251 252 252 263 266 268 271 278 288 299 312 324 324 321
292 289 288 285 275 273 270 266 262 261 261 262 261 260 261 264 262 261 259 258 257 251 248 250 251 253 253 252 251 251 251 252 256 263 264 270 278 281 280 294 311 316 316
288 282 282 280 272 272 269 268 267 264 264 265 266 262 262 263 263 261 256 254 256 254 250 250 253 252 251 250 250 250 252 250 254 258 264 268 270 275 277 285 300 312 324
285 280 278 276 276 276 272 273 272 269 273 273 268 265 266 266 265 264 261 256 255 256 252 251 253 254 254 253 251 251 252 253 254 256 263 262 265 272 272 273 285 299 310
284 278 275 274 276 276 275 275 276 274 275 278 274 269 266 266 268 267 263 259 257 254 251 252 254 257 256 255 254 252 251 253 255 257 261 262 265 267 270 271 279 289 295
281 276 271 273 275 274 275 275 277 277 276 278 276 272 266 266 266 265 262 258 256 250 248 252 254 256 256 256 255 252 252 255 256 257 259 262 263 266 268 269 275 281 286
Height
5878 5878 5879 5880 5880 5881 5881 5882 5882 5882 5882 5882 5882 5883 5883 5884 5884 5885 5885 5886 5887 5887 5888 5889 5889 5890 5890 5890 5891 5891 5891 5891 5891 5892 5892 5892 5892 5892 5892 5892 5892 5893 5893
5880 5880 5881 5881 5882 5882 5883 5883 5883 5884 5884 5884 5884 5885 5885 5886 5886 5887 5887 5888 5888 5889 5889 5890 5891 5891 5891 5891 5892 5892 5892 5892 5893 5893 5893 5893 5893 5894 5894 5894 5894 5894 5894
5881 5881 5882 5883 5883 5884 5884 5885 5885 5885 5886 5886 5886 5886 5887 5887 5888 5888 5889 5889 5890 5891 5891 5891 5892 5892 5892 5893 5893 5893 5894 5894 5894 5894 5895 5895 5895 5895 5895 5895 5895 5895 5896
5882 5883 5883 5884 5885 5885 5886 5886 5887 5887 5887 5887 5887 5888 5888 5889 5889 5890 5890 5891 5891 5892 5892 5893 5893 5893 5894 5894 5895 5895 5895 5895 5895 5896 5896 5896 5896 5896 5896 5896 5897 5897 5897
5883 5884 5884 5885 5886 5887 5887 5888 5888 5888 5889 5889 5889 5889 5890 5890 5890 5891 5892 5892 5893 5893 5894 5894 5895 5895 5895 5896 5896 5896 5897 5897 5897 5897 5897 5897 5898 5898 5898 5898 5898 5898 5898
5884 5885 5885 5886 5887 5887 5888 5889 5889 5889 5890 5890 5890 5891 5891 5891 5892 5892 5893 5894 5894 5895 5895 5896 5896 5896 5897 5897 5897 5898 5898 5898 5898 5898 5898 5899 5899 5899 5899 5899 5899 5900 5900
5885 5886 5886 5887 5887 5888 5889 5889 5890 5890 5891 5891 5892 5892 5892 5893 5893 5893 5894 5895 5895 5896 5896 5897 5897 5897 5898 5898 5898 5899 5899 5899 5899 5900 5900 5900 5900 5900 5900 5901 5901 5901 5901
5886 5886 5887 5888 5888 5889 5890 5890 5891 5891 5892 5892 5893 5893 5893 5894 5894 5895 5895 5896 5896 5897 5897 5898 5898 5898 5899 5899 5899 5900 5900 5900 5900 5901 5901 5901 5901 5902 5902 5902 5902 5902 5902
5886 5887 5888 5888 5889 5889 5890 5891 5891 5892 5892 5893 5893 5894 5894 5895 5895 5896 5896 5897 5897 5898 5898 5899 5899 5899 5900 5900 5900 5901 5901 5901 5901 5902 5902 5902 5902 5903 5903 5903 5903 5904 5904
5886 5887 5888 5889 5889 5890 5891 5891 5892 5892 5893 5893 5894 5894 5895 5895 5896 5896 5897 5897 5898 5898 5899 5900 5900 5900 5901 5901 5901 5902 5902 5902 5902 5903 5903 5903 5903 5904 5904 5904 5904 5905 5905
5887 5888 5888 5889 5890 5890 5891 5892 5892 5893 5893 5894 5894 5895 5895 5896 5896 5897 5897 5898 5899 5899 5900 5900 5901 5901 5901 5902 5902 5902 5903 5903 5903 5903 5904 5904 5904 5905 5905 5905 5905 5906 5905
5887 5888 5888 5889 5890 5890 5891 5892 5892 5893 5893 5894 5895 5895 5895 5896 5896 5897 5898 5898 5899 5900 5900 5901 5901 5902 5902 5903 5903 5903 5903 5904 5904 5904 5904 5905 5905 5905 5906 5906 5906 5906 5906
5887 5888 5888 5889 5889 5890 5891 5892 5892 5893 5893 5894 5895 5895 5896 5896 5897 5898 5898 5899 5899 5900 5901 5901 5902 5902 5903 5903 5903 5904 5904 5905 5905 5905 5905 5905 5906 5906 5906 5906 5906 5906 5907
5887 5887 5888 5888 5889 5890 5890 5891 5892 5893 5893 5894 5895 5895 5896 5897 5898 5898 5899 5899 5900 5900 5901 5902 5902 5902 5903 5903 5904 5904 5905 5905 5905 5905 5906 5906 5906 5906 5906 5906 5906 5906 5907
5887 5887 5887 5888 5888 5889 5890 5891 5892 5892 5893 5894 5895 5895 5896 5897 5898 5898 5899 5900 5900 5901 5901 5902 5902 5903 5903 5904 5904 5905 5905 5905 5905 5906 5906 5906 5906 5906 5906 5906 5906 5906 5906
5886 5887 5887 5888 5888 5889 5889 5890 5891 5892 5893 5894 5894 5895 5896 5896 5897 5898 5899 5899 5900 5900 5901 5902 5902 5903 5904 5904 5904 5905 5905 5906 5906 5905 5906 5906 5906 5907 5906 5906 5907 5906 5906
5886 5886 5886 5887 5887 5888 5888 5889 5890 5891 5892 5893 5894 5894 5895 5896 5897 5898 5898 5899 5899 5900 5901 5902 5902 5903 5904 5904 5904 5905 5905 5906 5906 5906 5906 5906 5907 5907 5907 5907 5907 5907 5907
5885 5885 5885 5886 5886 5886 5887 5888 5889 5890 5891 5892 5893 5893 5894 5895 5896 5897 5897 5898 5898 5899 5900 5901 5902 5903 5903 5903 5904 5904 5905 5905 5906 5906 5907 5907 5907 5907 5907 5907 5907 5907 5907
5883 5883 5883 5884 5884 5884 5885 5886 5888 5889 5890 5891 5891 5892 5893 5894 5895 5896 5896 5897 5898 5898 5899 5900 5901 5902 5902 5903 5903 5904 5905 5905 5905 5906 5906 5907 5907 5907 5907 5907 5907 5907 5907
5882 5881 5881 5882 5882 5883 5884 5885 5886 5887 5888 5889 5890 5891 5891 5892 5893 5894 5895 5896 5896 5897 5898 5899 5900 5901 5901 5902 5903 5903 5904 5904 5905 5905 5906 5906 5906 5906 5906 5906 5906 5906 5906
5879 5879 5879 5880 5880 5881 5882 5883 5884 5885 5886 5887 5888 5889 5889 5890 5891 5892 5893 5894 5895 5896 5897 5898 5899 5900 5900 5901 5902 5902 5903 5903 5904 5905 5905 5905 5906 5906 5906 5906 5906 5906 5906
5877 5877 5877 5878 5879 5879 5880 5880 5882 5883 5884 5885 5886 5887 5887 5888 5889 5890 5891 5892 5893 5894 5895 5896 5897 5898 5899 5900 5901 5901 5902 5903 5903 5904 5904 5905 5905 5905 5905 5905 5905 5905 5905
5875 5875 5875 5876 5876 5877 5878 5879 5880 5881 5882 5882 5883 5883 5884 5885 5886 5887 5888 5890 5891 5892 5893 5894 5895 5897 5897 5898 5899 5900 5901 5902 5902 5903 5903 5904 5904 5904 5904 5904 5904 5904 5904
5872 5873 5873 5874 5875 5875 5876 5876 5877 5878 5879 5879 5880 5880 5881 5882 5883 5884 5885 5887 5888 5889 5891 5892 5893 5894 5895 5897 5897 5898 5900 5900 5901 5902 5902 5902 5902 5903 5903 5903 5903 5903 5903
5869 5870 5871 5872 5872 5873 5873 5874 5875 5875 5876 5876 5876 5877 5878 5879 5879 5881 5882 5884 5885 5886 5888 5889 5891 5892 5893 5894 5895 5896 5897 5898 5899 5900 5900 5901 5901 5901 5901 5902 5902 5902 5902
5867 5868 5869 5870 5870 5870 5871 5871 5872 5872 5873 5873 5873 5874 5874 5875 5876 5877 5878 5880 5882 5883 5884 5886 5887 5889 5890 5891 5892 5893 5894 5896 5897 5897 5898 5898 5899 5899 5900 5900 5900 5900 5900